Regional Weather Roundup
Issued by NWS

Home | Current Version | Previous Version | Graphics & Text | Print | Product List | Glossary On
Versions: 1 2 3 4 5 6 7 8 9 10 11 12 13 14 15 16 17 18 19 20 21 22 23 24 25 26 27 28 29 30 31 32 33 34 35 36 37 38 39 40 41 42 43 44 45 46 47 48 49 50
000
ASUS45 KABQ 230110
RWRNM
NEW MEXICO REGIONAL WEATHER ROUNDUP
NATIONAL WEATHER SERVICE ALBUQUERQUE NM
600 PM MST WED FEB 22 2017

NOTE: "FAIR" MEANS FEW OR NO CLOUDS BELOW 12,000 FEET AGL WITH NO
       SIGNIFICANT WEATHER OR OBSTRUCTIONS TO VISION.

      THIS PRODUCT IS RELEASED AS TWO VERSIONS.  ONE VERSION NEAR
      THE TOP OF THE HOUR CONTAINING PRELIMINARY DATA FROM ALBUQUERQUE
      AND OTHER STATIONS.  A FINAL VERSION WITH ADDITIONAL DATA IS
      ISSUED ABOUT 10 MINUTES AFTER THE HOUR.

NMZ501-503-504-510>518-230200-
NORTHWEST PLATEAU/NORTHCENTRAL MOUNTAINS

CITY           SKY/WX    TMP DP  RH WIND       PRES   REMARKS
FARMINGTON     FAIR      57  20  23 SW17      29.79F
LOS ALAMOS     CLOUDY    51  20  29 SW12G20   29.95F
SANTA FE       CLOUDY    52  32  46 N5        29.91F
TAOS             N/A     48  19  32 SW6       29.92F
ANGEL FIRE     CLOUDY    35  32  88 CALM      29.98F

$$
NMZ402-403-502-505>509-230200-
WESTCENTRAL MOUNTAINS/SOUTHWEST MOUNTAINS

CITY           SKY/WX    TMP DP  RH WIND       PRES   REMARKS
GALLUP         CLOUDY    52  15  23 W32G55    29.96R
GRANTS         CLOUDY    51  31  47 NW15G25   29.98R
SILVER CITY    FAIR      63  33  32 NW9       29.96F

$$
NMZ407-409-411-412-230200-
SOUTHERN DESERTS

CITY           SKY/WX    TMP DP  RH WIND       PRES   REMARKS
DEMING         FAIR      71  33  24 W14       29.90F
LAS CRUCES     FAIR      71  27  19 W9        29.91S
HOLLOMAN AFB   FAIR      72  28  19 SW14      29.90F
ALAMOGORDO     FAIR      70  30  23 S6        29.89S
T OR C         FAIR      70  28  21 SW13      29.88S

$$
NMZ519>523-230200-
CENTRAL VALLEYS/CENTRAL HIGHLANDS

CITY           SKY/WX    TMP DP  RH WIND       PRES   REMARKS
ALBUQUERQUE    MOCLDY    62  33  33 W14       29.87F
DOUBLE EAGLE   MOCLDY    57  32  38 W18G30    29.90F
MORIARTY ARPT  LGT RAIN  58  31  35 W7        29.92F
CLINES CORNERS CLOUDY    53  30  41 W10       29.95F
BELEN          FAIR      62  30  30 W8        29.87F
SOCORRO        FAIR      68  24  18 SW10      29.86S

$$
NMZ524>526-539-540-230200-
SOUTHCENTRAL MOUNTAINS

CITY           SKY/WX    TMP DP  RH WIND       PRES   REMARKS
RUIDOSO        FAIR      57  25  28 SW18      30.00F

$$
NMZ527>531-230200-
NORTHEAST HIGHLANDS/NORTHEAST PLAINS

CITY           SKY/WX    TMP DP  RH WIND       PRES   REMARKS
RATON          FAIR      50  23  34 SW18      29.87F
CLAYTON        FAIR      62  15  16 W18G30    29.84R

$$
NMZ532>537-230200-
EASTCENTRAL PLAINS

CITY           SKY/WX    TMP DP  RH WIND       PRES   REMARKS
TUCUMCARI      FAIR      68  30  24 NW13      29.79F
CANNON AFB     FAIR      66  31  27 SW7       29.82S
CLOVIS AIRPORT FAIR      61  32  33 SW10      29.82F

$$
NMZ028-029-538-230200-
SOUTHEAST PLAINS

CITY           SKY/WX    TMP DP  RH WIND       PRES   REMARKS
ROSWELL        FAIR      77  22  13 W16         N/A
ARTESIA        FAIR      73  27  17 SW15      29.81R
CARLSBAD       FAIR      74  19  12 W8        29.80F
HOBBS          CLEAR     70  16  12 SW8       29.83F


$$



USA.gov is the U.S. government's official web portal to all federal, state and local government web resources and services.